Regional Weather Roundup
Issued by NWS

Home | Current Version | Previous Version | Text Only | Print | Product List | Glossary On
Versions: 1 2 3 4 5 6 7 8 9 10 11 12 13 14 15 16 17 18 19 20 21 22 23 24 25 26 27 28 29 30 31 32 33 34 35 36 37 38 39 40 41 42 43 44 45 46 47 48 49 50
000
ASUS43 KMKX 030321
RWRWI

WISCONSIN REGIONAL WEATHER ROUNDUP
NATIONAL WEATHER SERVICE MILWAUKEE/SULLIVAN WI
1000 PM CDT TUE JUN 02 2015

NOTE: "FAIR" INDICATES FEW OR NO CLOUDS BELOW 12,000 FEET WITH NO
SIGNIFICANT WEATHER AND/OR OBSTRUCTIONS TO VISIBILITY.

WIZ001-002-006>008-014>016-023>028-030400-
NORTHWEST WISCONSIN

CITY           SKY/WX    TMP DP  RH WIND       PRES   REMARKS
SUPERIOR ARPT  CLOUDY    47  41  80 N3        29.94S
ASHLAND        CLOUDY    65  49  56 S5        29.96R
HAYWARD        CLOUDY    67  48  50 S12       29.96F
SIREN          PTCLDY    66  52  60 SE6       29.93S
CUMBERLAND     CLOUDY    63  52  67 SE8       29.96S
RICE LAKE      CLOUDY    66  51  57 SE9       29.98S
CHETEK         CLOUDY    65  52  63 SE8       29.97S
LADYSMITH      MOCLDY    63  50  62 SE5       30.01S
EAU CLAIRE     PTCLDY    64  49  57 SE7       29.98R
MENOMONIE      MOCLDY    64  52  64 SE8       29.97S
NEW RICHMOND   MOCLDY    65  51  61 SE7       29.94S
OSCEOLA        PTCLDY    67  53  61 SE9       29.94F
$$

WIZ003>005-009-010-017-018-030400-
NORTH CENTRAL WISCONSIN

CITY           SKY/WX    TMP DP  RH WIND       PRES   REMARKS
MANITOWISH WTR PTCLDY    54  42  63 S5        30.01S
ARBOR VITAE    PTCLDY    59  42  53 S3        30.03R
WOODRUFF       PTCLDY    59  42  53 S3        30.03R
RHINELANDER    MOCLDY    59  41  51 SE3       30.04R
EAGLE RIVER    PTCLDY    58  40  51 S3        30.03R
LAND O LAKES   PTCLDY    53  44  72 CALM      30.03S
PHILLIPS       PTCLDY    60  43  54 SE5       30.01S
TOMAHAWK       PTCLDY    52  44  76 CALM      30.04R
MEDFORD        PTCLDY    55  46  69 S3        30.03R
MERRILL        NOT AVBL
$$

WIZ029-030-035-036-043>047-030400-
CENTRAL WISCONSIN

CITY           SKY/WX    TMP DP  RH WIND       PRES   REMARKS
WAUSAU         PTCLDY    61  44  53 SE6       30.03R
MOSINEE        CLEAR     61  43  51 SE3       30.05R
MARSHFIELD     CLEAR     61  44  53 S5        30.03R
STEVENS POINT  PTCLDY    56  44  63 SE3       30.05R
WAUPACA        PTCLDY    61  44  54 SE6       30.05S
WAUTOMA        PTCLDY    62  47  58 SE7       30.05R
WISC RAPIDS    CLEAR     61  43  51 S5        30.05R
CAMP DOUGLAS   MOCLDY    54  54 100 SE5       30.02S
$$

WIZ011>013-019>022-031-037>040-048>050-030400-
NORTHEAST WISCONSIN

CITY           SKY/WX    TMP DP  RH WIND       PRES   REMARKS
ANTIGO         MOCLDY    53  45  74 S9        30.06R
SHAWANO        MOCLDY    60  36  41 S6        30.06S
OCONTO         PTCLDY    56  37  48 SE6       30.06S
STURGEON BAY   PTCLDY    46  37  71 SE8       30.11S
GREEN BAY      PTCLDY    56  43  61 SE5       30.07R
MANITOWOC      CLEAR     49  46  90 E3        30.09S
APPLETON       PTCLDY    57  43  58 SE7       30.07R
CLINTONVILLE   PTCLDY    55  39  54 SE5       30.06R
OSHKOSH        CLEAR     53  44  71 S5        30.06R
$$

WIZ032>034-041-042-053>061-030400-
SOUTHWEST WISCONSIN

CITY           SKY/WX    TMP DP  RH WIND       PRES   REMARKS
LA CROSSE      PTCLDY    65  49  56 S7        29.99S
SPARTA         CLEAR     55  48  77 E5        30.03R
VIROQUA        PTCLDY    62  48  58 SE7       30.03S
BOSCOBEL       PTCLDY    56  51  84 CALM      30.03R
PRAIRIE DU CHI PTCLDY    62  49  63 E5        30.01S
PLATTEVILLE    PTCLDY    64  49  58 SE7       30.03S
$$

WIZ056-057-062-063-064-067-068-030400-
SOUTH CENTRAL WISCONSIN

CITY           SKY/WX    TMP DP  RH WIND       PRES   REMARKS
REEDSBURG      PTCLDY    60  48  64 CALM      30.03S
BARABOO/DELLS  PTCLDY    56  47  72 CALM      30.04S
LONE ROCK      CLEAR     58  47  66 CALM      30.04R
MINERAL POINT  PTCLDY    64  45  48 SE3       30.04S
MADISON        PTCLDY    63  46  54 S5        30.05R
MIDDLETON      PTCLDY    60  47  62 CALM      30.05S
WATERTOWN      PTCLDY    58  41  53 SE6       30.07R
MONROE         PTCLDY    63  45  51 S8        30.05S
JANESVILLE     PTCLDY    59  43  55 SE9       30.06S
$$

WIZ051-052-058>065-066-070>072-030400-
SOUTHEAST WISCONSIN

CITY           SKY/WX    TMP DP  RH WIND       PRES   REMARKS
MILWAUKEE      MOCLDY    51  44  77 SE5       30.10R
WAUKESHA       CLEAR     54  43  66 SE6       30.10S
MILWAUKEE/TIMM FAIR      54  41  62 CALM      30.09S
RACINE         CLEAR     53  44  71 SE5       30.11S
BURLINGTON     CLEAR     54  44  70 SE3       30.09S
KENOSHA        CLEAR     53  44  71 SE6       30.10R
FOND DU LAC    CLEAR     55  42  61 S8        30.07R
SHEBOYGAN      CLEAR     51  44  77 S3        30.09R
WEST BEND      PTCLDY    52  41  66 CALM      30.09R
JUNEAU         PTCLDY    57  44  60 SE7       30.08R
$$

LSZ147-162-030400-
LAKE SUPERIOR

STATION/POSITION TIME  TEMP    WIND        PRES    WAVE
                       AIR SEA DIR/SP/G            HT/PER
                 (UTC) (F)     (DEG/KT/KT) (MB)    (FT/S)
W MID LAKE BUOY  0250   44 37  130/ 10/ 10   N/A     1
DEVILS ISLAND    0300   47      80/  5/  5   N/A
PORT WING        0200   44      30/  7/  8   N/A
SAXON HARBOR     0200   62        CALM       N/A
$$

LMZ867-665-643>646-030400-
LAKE MICHIGAN

STATION/POSITION TIME  TEMP    WIND        PRES    WAVE
                       AIR SEA DIR/SP/G            HT/PER
                 (UTC) (F)     (DEG/KT/KT) (MB)    (FT/S)
CHAMBERS ISLAND  0200   59     150/  3/  7   N/A
N MID LAKE BUOY  0250   40 37  160/  8/  8   N/A     0
NORTHPORT PIER   0200   49     150/  7/ 10   N/A
SISTER BAY       0218   48     150/  8/ 10   N/A
ALGOMA LAKESHORE 0209             CALM       N/A
KEWAUNEE LAKESHO 0200   50     170/  1/  4   N/A
SHEBOYGAN LAKESH 0300   49     170/  4/  5   N/A
PORT WASHINGTON  0200   50     150/  2/  3   N/A
ATWATER BUOY     0300   48 49  130/  2/  2   N/A
MILWAUKEE LAKESH 0300   48      80/  1/  1   N/A
S MID LAKE BUOY  0250   42 38   80/  6/  8   N/A     0
KENOSHA   LAKESH 0300   52     160/  4/  5   N/A
$$

TC  - TEMPERATURE IN CELSIUS
VSB - VISIBILITY IN STATUTE MILES
WCI - WIND CHILL INDEX
HX  - HEAT INDEX



USA.gov is the U.S. government's official web portal to all federal, state and local government web resources and services.